Palacios, TX

8:01 PM CDT on October 19, 2017 (GMT -0500)
Palacios Municipal

Weather History for KPSX - August, 2014

Change the Weather History Date:

Sunday, August 17, 2014

  Actual Average Record
Temperature  
Mean Temperature 88 °F -  
Max Temperature 93 °F 90 °F 101 °F (1951)
Min Temperature 84 °F 76 °F 60 °F (1992)
Cooling Degree Days 22    
Growing Degree Days 38 (Base 50)    
Moisture  
Dew Point 77 °F    
Average Humidity 72    
Maximum Humidity 80    
Minimum Humidity 59    
Precipitation  
Precipitation 0.00 in - - ()
Sea Level Pressure  
Sea Level Pressure 29.97 in    
Wind  
Wind Speed 16 mph (South)    
Max Wind Speed 21 mph    
Max Gust Speed 28 mph    
Visibility 10 miles    
Events Rain    
Averages and records for this station are not official NWS values.
T = Trace of Precipitation, MM = Missing Value Source: NWS Daily Summary

Daily Weather History Graph

Daily Weather History Graph

Search for Another Location

Airport or City:

Trip Planner

Search our weather history database for the weather conditions in past years. The results will help you decide how hot, cold, wet, or windy it might be!

Date:

Astronomy

Aug. 17, 2014 Rise Set
Actual Time 6:55 AM CDT 8:02 PM CDT
Civil Twilight 6:30 AM CDT 8:27 PM CDT
Nautical Twilight 6:01 AM CDT 8:56 PM CDT
Astronomical Twilight 5:31 AM CDT 9:26 PM CDT
Moon 12:23 AM CDT (8/17) 2:03 PM CDT (8/17)
Length of Visible Light 13h 56m
Length of Day
13h 07m
Waning Gibbous, 48% of the Moon is Illuminated
Aug 17
Waning Gibbous
Aug 25
New
Sep 2
First Quarter
Sep 8
Full
Sep 15
Last Quarter

Hourly Weather History & Observations

Time (CDT) Temp. Heat Index Dew Point Humidity Pressure Visibility Wind Dir Wind Speed Gust Speed Precip Events Conditions
12:03 AM 86.0 °F 96.9 °F 77.0 °F 74% 29.97 in 10.0 mi South 18.4 mph 25.3 mph N/A   Mostly Cloudy
12:20 AM 86.0 °F 96.9 °F 77.0 °F 74% 29.97 in 10.0 mi South 19.6 mph 27.6 mph N/A   Scattered Clouds
12:50 AM 86.0 °F 96.9 °F 77.0 °F 74% 29.97 in 10.0 mi South 18.4 mph 26.5 mph N/A   Mostly Cloudy
12:53 AM 86.0 °F 96.9 °F 77.0 °F 74% 29.97 in 10.0 mi South 16.1 mph 24.2 mph N/A   Mostly Cloudy
1:48 AM 84.2 °F 94.1 °F 77.0 °F 79% 29.96 in 10.0 mi South 19.6 mph 26.5 mph 0.00 in Rain Light Rain
1:53 AM 86.0 °F 96.9 °F 77.0 °F 74% 29.95 in 10.0 mi South 19.6 mph 26.5 mph N/A Rain Light Rain
2:06 AM 86.0 °F 96.9 °F 77.0 °F 74% 29.95 in 10.0 mi South 20.7 mph 27.6 mph 0.00 in Rain Light Rain
2:53 AM 84.9 °F 95.3 °F 77.0 °F 77% 29.95 in 10.0 mi South 15.0 mph 24.2 mph 0.00 in Rain Light Rain
3:53 AM 84.9 °F 95.3 °F 77.0 °F 77% 29.95 in 10.0 mi South 15.0 mph 23.0 mph 0.00 in Rain Light Rain
4:53 AM 84.9 °F 96.6 °F 78.1 °F 80% 29.95 in 10.0 mi South 13.8 mph - 0.00 in   Mostly Cloudy
5:10 AM 84.9 °F 95.3 °F 77.0 °F 77% 29.96 in 10.0 mi South 12.7 mph 21.9 mph 0.00 in Rain Light Rain
5:53 AM 84.9 °F 95.3 °F 77.0 °F 77% 29.96 in 10.0 mi South 13.8 mph - 0.00 in Rain Light Rain
6:34 AM 84.9 °F 95.3 °F 77.0 °F 77% 29.97 in 10.0 mi South 13.8 mph 21.9 mph 0.00 in Rain Light Rain
6:44 AM 84.9 °F 95.3 °F 77.0 °F 77% 29.97 in 10.0 mi South 12.7 mph - 0.00 in Rain Light Rain
6:53 AM 84.9 °F 95.3 °F 77.0 °F 77% 29.97 in 10.0 mi South 13.8 mph - 0.00 in Rain Light Rain
7:53 AM 86.0 °F 96.9 °F 77.0 °F 74% 29.98 in 10.0 mi South 11.5 mph - 0.00 in   Partly Cloudy
8:53 AM 87.1 °F 98.8 °F 77.0 °F 72% 29.99 in 10.0 mi South 13.8 mph - N/A   Scattered Clouds
9:10 AM 87.1 °F 98.8 °F 77.0 °F 72% 30.00 in 10.0 mi South 13.8 mph - N/A   Mostly Cloudy
9:53 AM 88.0 °F 101.3 °F 78.1 °F 72% 30.00 in 10.0 mi South 12.7 mph - N/A   Mostly Cloudy
10:04 AM 89.1 °F 101.4 °F 77.0 °F 67% 30.00 in 10.0 mi South 11.5 mph - N/A   Scattered Clouds
10:53 AM 89.1 °F 101.4 °F 77.0 °F 67% 30.01 in 10.0 mi SSW 15.0 mph - N/A   Scattered Clouds
11:53 AM 90.0 °F 102.5 °F 77.0 °F 65% 30.01 in 10.0 mi South 17.3 mph 25.3 mph N/A   Mostly Cloudy
12:53 PM 91.0 °F 104.2 °F 77.0 °F 63% 30.00 in 10.0 mi South 17.3 mph - N/A   Partly Cloudy
1:53 PM 91.9 °F 105.9 °F 77.0 °F 62% 29.99 in 10.0 mi South 16.1 mph - N/A   Mostly Cloudy
2:53 PM 91.9 °F 107.3 °F 78.1 °F 64% 29.98 in 9.0 mi South 17.3 mph - N/A   Mostly Cloudy
3:00 PM 91.0 °F 104.2 °F 77.0 °F 63% 29.97 in 8.0 mi SSW 17.3 mph 23.0 mph N/A   Mostly Cloudy
3:53 PM 91.0 °F 102.9 °F 75.9 °F 61% 29.95 in 9.0 mi South 17.3 mph 24.2 mph N/A   Scattered Clouds
4:53 PM 91.4 °F 102.5 °F 75.2 °F 59% 29.94 in 10.0 mi South 15.0 mph - N/A   Clear
5:53 PM 90.0 °F 101.3 °F 75.9 °F 63% 29.92 in 10.0 mi South 16.1 mph - N/A   Clear
7:32 PM 87.1 °F 98.8 °F 77.0 °F 72% 29.94 in 10.0 mi South 11.5 mph - N/A   Mostly Cloudy
7:53 PM 87.1 °F 98.8 °F 77.0 °F 72% 29.95 in 10.0 mi South 13.8 mph - N/A   Mostly Cloudy
8:45 PM 86.0 °F 95.1 °F 75.0 °F 70% 29.96 in 10.0 mi SSE 11.5 mph - N/A   Scattered Clouds
8:53 PM 86.0 °F 96.0 °F 75.9 °F 72% 29.96 in 10.0 mi SSE 10.4 mph - N/A   Partly Cloudy
9:53 PM 86.0 °F 96.0 °F 75.9 °F 72% 29.98 in 10.0 mi SSE 16.1 mph - N/A   Clear
10:53 PM 84.9 °F 95.3 °F 77.0 °F 77% 29.98 in 10.0 mi SSE 13.8 mph 23.0 mph N/A   Partly Cloudy
11:53 PM 84.9 °F 94.1 °F 75.9 °F 74% 29.98 in 10.0 mi South 13.8 mph - 0.00 in   Partly Cloudy